| time (UTC) | temp F | wind direction | speed MPH | gust MPH | rain 1hr in | rain 24hr in | rain mn in | humidity % | barometer mb |
| 20260901150219 | 83 | 94 | 3.0 | 4.0 | 0.00 | 0.00 | 0.00 | 84 | 985.2 |
| 20260901145717 | 82 | 67 | 2.0 | 4.0 | 0.00 | 0.00 | 0.00 | 85 | 985.2 |
| 20260901145217 | 81 | 222 | 1.0 | 3.0 | 0.00 | 0.00 | 0.00 | 85 | 985.2 |
| 20260901144712 | 81 | 79 | 2.0 | 3.0 | 0.00 | 0.00 | 0.00 | 86 | 985.1 |
| 20260901144207 | 82 | 122 | 1.0 | 3.0 | 0.00 | 0.00 | 0.00 | 85 | 985.2 |
| 20260901143702 | 82 | 113 | 0.0 | 2.0 | 0.00 | 0.00 | 0.00 | 85 | 985.3 |
| 20260901143159 | 81 | 142 | 3.0 | 4.0 | 0.00 | 0.00 | 0.00 | 83 | 985.4 |
| 20260901142655 | 81 | 108 | 1.0 | 3.0 | 0.00 | 0.00 | 0.00 | 87 | 985.4 |
| 20260901142154 | 80 | 120 | 2.0 | 4.0 | 0.00 | 0.00 | 0.00 | 87 | 985.4 |
| 20260901141649 | 80 | 91 | 4.0 | 4.0 | 0.00 | 0.00 | 0.00 | 87 | 985.3 |
| 20260901141149 | 79 | 93 | 2.0 | 2.0 | 0.00 | 0.00 | 0.00 | 90 | 985.3 |
| 20260901140648 | 78 | 103 | 0.0 | 2.0 | 0.00 | 0.00 | 0.00 | 92 | 985.5 |
| 20260901140147 | 78 | 87 | 1.0 | 3.0 | 0.00 | 0.00 | 0.00 | 91 | 985.6 |
| 20260901135642 | 79 | 76 | 1.0 | 2.0 | 0.00 | 0.00 | 0.00 | 90 | 985.4 |
| 20260901135137 | 78 | 85 | 0.0 | 2.0 | 0.00 | 0.00 | 0.00 | 93 | 985.4 |
| 20260901134633 | 78 | 106 | 2.0 | 2.0 | 0.00 | 0.00 | 0.00 | 93 | 985.5 |
| 20260901134128 | 77 | 109 | 0.0 | 2.0 | 0.00 | 0.00 | 0.00 | 95 | 985.5 |
| 20260901133627 | 76 | 93 | 1.0 | 2.0 | 0.00 | 0.00 | 0.00 | 97 | 985.5 |
| 20260901133125 | 76 | 104 | 1.0 | 1.0 | 0.00 | 0.00 | 0.00 | 99 | 985.4 |
| 20260901132620 | 75 | 78 | 0.0 | 2.0 | 0.00 | 0.00 | 0.00 | 99 | 985.6 |
| 20260901132120 | 74 | 111 | 0.0 | 0.0 | 0.00 | 0.00 | 0.00 | 98 | 985.4 |
| 20260901131619 | 74 | 110 | 0.0 | 0.0 | 0.00 | 0.00 | 0.00 | 99 | 985.7 |
| 20260901131114 | 73 | 77 | 0.0 | 0.0 | 0.00 | 0.00 | 0.00 | 98 | 985.5 |
| 20260901130610 | 73 | 76 | 0.0 | 0.0 | 0.00 | 0.00 | 0.00 | 98 | 985.6 |
| 20260901130108 | 73 | 64 | 0.0 | 0.0 | 0.00 | 0.00 | 0.00 | 96 | 985.6 |
| 20260901125606 | 73 | 64 | 0.0 | 0.0 | 0.00 | 0.00 | 0.00 | 96 | 985.6 |
| 20260901125102 | 71 | 221 | 0.0 | 0.0 | 0.00 | 0.00 | 0.00 | 99 | 985.5 |
| 20260901124601 | 71 | 221 | 0.0 | 0.0 | 0.00 | 0.00 | 0.00 | 99 | 985.5 |
| 20260901124056 | 70 | 226 | 0.0 | 0.0 | 0.00 | 0.00 | 0.00 | 99 | 985.6 |
| 20260901123546 | 69 | 226 | 0.0 | 0.0 | 0.00 | 0.00 | 0.00 | 99 | 985.7 |
| 20260901123045 | 69 | 226 | 0.0 | 0.0 | 0.00 | 0.00 | 0.00 | 99 | 985.7 |
| 20260901122544 | 69 | 226 | 0.0 | 0.0 | 0.00 | 0.00 | 0.00 | 99 | 985.6 |
| 20260901122037 | 68 | 226 | 0.0 | 0.0 | 0.00 | 0.00 | 0.00 | 99 | 985.5 |
| 20260901121532 | 68 | 227 | 0.0 | 0.0 | 0.00 | 0.00 | 0.00 | 99 | 985.6 |
| 20260901121027 | 67 | 227 | 0.0 | 0.0 | 0.00 | 0.00 | 0.00 | 99 | 985.5 |
| 20260901120527 | 67 | 227 | 1.0 | 2.0 | 0.00 | 0.00 | 0.00 | 99 | 985.5 |
| 20260901120023 | 66 | 226 | 0.0 | 0.0 | 0.00 | 0.00 | 0.00 | 99 | 985.4 |
| 20260901115517 | 66 | 226 | 0.0 | 0.0 | 0.00 | 0.00 | 0.00 | 99 | 985.4 |
| 20260901115015 | 66 | 226 | 0.0 | 0.0 | 0.00 | 0.00 | 0.00 | 99 | 985.4 |
| 20260901114510 | 65 | 226 | 0.0 | 0.0 | 0.00 | 0.00 | 0.00 | 99 | 985.3 |
| 20260901114008 | 65 | 226 | 0.0 | 0.0 | 0.00 | 0.00 | 0.00 | 99 | 985.2 |
| 20260901113507 | 65 | 226 | 0.0 | 0.0 | 0.00 | 0.00 | 0.00 | 99 | 985.1 |
| 20260901113003 | 65 | 226 | 0.0 | 0.0 | 0.00 | 0.00 | 0.00 | 99 | 985.1 |
| 20260901112458 | 65 | 226 | 0.0 | 0.0 | 0.00 | 0.00 | 0.00 | 99 | 985.1 |
| 20260901111953 | 65 | 226 | 0.0 | 0.0 | 0.00 | 0.00 | 0.00 | 99 | 985.0 |
| 20260901111451 | 64 | 226 | 0.0 | 0.0 | 0.00 | 0.00 | 0.00 | 99 | 985.1 |
| 20260901110949 | 64 | 226 | 0.0 | 0.0 | 0.00 | 0.00 | 0.00 | 99 | 985.0 |
| 20260901110445 | 65 | 227 | 0.0 | 0.0 | 0.00 | 0.00 | 0.00 | 99 | 985.0 |
| 20260901105941 | 65 | 226 | 0.0 | 0.0 | 0.00 | 0.00 | 0.00 | 99 | 985.0 |
| 20260901105437 | 64 | 226 | 0.0 | 0.0 | 0.00 | 0.00 | 0.00 | 99 | 984.7 |
| 20260901104932 | 65 | 226 | 0.0 | 0.0 | 0.00 | 0.00 | 0.00 | 99 | 984.8 |
| 20260901104427 | 65 | 226 | 0.0 | 0.0 | 0.00 | 0.00 | 0.00 | 99 | 984.7 |
| 20260901103923 | 64 | 226 | 0.0 | 0.0 | 0.00 | 0.00 | 0.00 | 99 | 984.6 |
| 20260901103423 | 64 | 226 | 0.0 | 0.0 | 0.00 | 0.00 | 0.00 | 99 | 984.6 |
| 20260901102918 | 64 | 226 | 0.0 | 0.0 | 0.00 | 0.00 | 0.00 | 99 | 984.7 |
| 20260901102418 | 65 | 226 | 0.0 | 0.0 | 0.00 | 0.00 | 0.00 | 99 | 984.6 |
| 20260901101913 | 65 | 226 | 0.0 | 0.0 | 0.00 | 0.00 | 0.00 | 99 | 984.5 |
| 20260901101409 | 65 | 226 | 0.0 | 0.0 | 0.00 | 0.00 | 0.00 | 99 | 984.5 |
| 20260901100908 | 65 | 226 | 0.0 | 0.0 | 0.00 | 0.00 | 0.00 | 99 | 984.3 |
| 20260901100403 | 65 | 226 | 0.0 | 0.0 | 0.00 | 0.00 | 0.00 | 99 | 984.3 |
| 20260901095902 | 65 | 226 | 0.0 | 0.0 | 0.00 | 0.00 | 0.00 | 99 | 984.3 |
| 20260901095400 | 65 | 226 | 0.0 | 0.0 | 0.00 | 0.00 | 0.00 | 99 | 984.3 |
| 20260901094854 | 65 | 226 | 0.0 | 0.0 | 0.00 | 0.00 | 0.00 | 99 | 984.3 |
| 20260901094348 | 65 | 226 | 0.0 | 0.0 | 0.00 | 0.00 | 0.00 | 99 | 984.4 |
| 20260901093843 | 65 | 226 | 0.0 | 0.0 | 0.00 | 0.00 | 0.00 | 99 | 984.4 |
| 20260901093342 | 65 | 226 | 0.0 | 0.0 | 0.00 | 0.00 | 0.00 | 99 | 984.3 |
| 20260901092838 | 65 | 226 | 0.0 | 0.0 | 0.00 | 0.00 | 0.00 | 99 | 984.4 |
| 20260901092334 | 65 | 226 | 0.0 | 0.0 | 0.00 | 0.00 | 0.00 | 99 | 984.5 |
| 20260901091831 | 65 | 226 | 0.0 | 0.0 | 0.00 | 0.00 | 0.00 | 99 | 984.2 |
| 20260901091330 | 65 | 226 | 0.0 | 0.0 | 0.00 | 0.00 | 0.00 | 99 | 984.4 |
| 20260901090825 | 65 | 226 | 0.0 | 0.0 | 0.00 | 0.00 | 0.00 | 99 | 984.3 |
| 20260901090320 | 65 | 226 | 0.0 | 0.0 | 0.00 | 0.00 | 0.00 | 99 | 984.3 |
| 20260901085816 | 65 | 226 | 0.0 | 0.0 | 0.00 | 0.00 | 0.00 | 99 | 984.3 |
| 20260901085316 | 65 | 226 | 0.0 | 0.0 | 0.00 | 0.00 | 0.00 | 99 | 984.4 |
| 20260901084812 | 65 | 226 | 0.0 | 0.0 | 0.00 | 0.00 | 0.00 | 99 | 984.3 |
| 20260901084308 | 65 | 226 | 0.0 | 0.0 | 0.00 | 0.00 | 0.00 | 99 | 984.3 |
| 20260901083809 | 65 | 226 | 0.0 | 0.0 | 0.00 | 0.00 | 0.00 | 99 | 984.5 |
| 20260901083308 | 65 | 226 | 0.0 | 0.0 | 0.00 | 0.00 | 0.00 | 99 | 984.3 |
| 20260901082807 | 66 | 226 | 0.0 | 0.0 | 0.00 | 0.00 | 0.00 | 99 | 984.3 |
| 20260901082306 | 66 | 226 | 0.0 | 0.0 | 0.00 | 0.00 | 0.00 | 99 | 984.3 |
| 20260901081757 | 65 | 226 | 0.0 | 0.0 | 0.00 | 0.00 | 0.00 | 99 | 984.2 |
| 20260901081252 | 65 | 226 | 0.0 | 0.0 | 0.00 | 0.00 | 0.00 | 99 | 984.1 |
| 20260901080747 | 65 | 226 | 0.0 | 0.0 | 0.00 | 0.00 | 0.00 | 99 | 984.1 |
| 20260901080246 | 66 | 226 | 0.0 | 0.0 | 0.00 | 0.00 | 0.00 | 99 | 984.2 |
| 20260901075741 | 66 | 226 | 0.0 | 0.0 | 0.00 | 0.00 | 0.00 | 99 | 984.1 |
| 20260901075236 | 66 | 226 | 0.0 | 0.0 | 0.00 | 0.00 | 0.00 | 99 | 984.4 |
| 20260901074735 | 66 | 226 | 0.0 | 0.0 | 0.00 | 0.00 | 0.00 | 99 | 984.3 |
| 20260901074230 | 66 | 226 | 0.0 | 0.0 | 0.00 | 0.00 | 0.00 | 99 | 984.4 |
| 20260901073727 | 66 | 226 | 0.0 | 0.0 | 0.00 | 0.00 | 0.00 | 99 | 984.2 |
| 20260901073222 | 66 | 226 | 0.0 | 0.0 | 0.00 | 0.00 | 0.00 | 99 | 984.3 |
| 20260901072717 | 66 | 226 | 0.0 | 0.0 | 0.00 | 0.00 | 0.00 | 99 | 984.3 |
| 20260901072212 | 66 | 226 | 0.0 | 0.0 | 0.00 | 0.00 | 0.00 | 99 | 984.2 |
| 20260901071707 | 66 | 226 | 0.0 | 0.0 | 0.00 | 0.00 | 0.00 | 99 | 984.2 |
| 20260901071207 | 66 | 226 | 0.0 | 0.0 | 0.00 | 0.00 | 0.00 | 99 | 984.4 |
| 20260901070700 | 67 | 226 | 0.0 | 0.0 | 0.00 | 0.00 | 0.00 | 99 | 984.5 |
| 20260901070156 | 66 | 226 | 0.0 | 0.0 | 0.00 | 0.00 | 0.00 | 99 | 984.5 |
| 20260901065655 | 66 | 226 | 0.0 | 0.0 | 0.00 | 0.00 | 0.00 | 99 | 984.3 |
| 20260901065150 | 66 | 226 | 0.0 | 0.0 | 0.00 | 0.00 | 0.00 | 99 | 984.5 |
| 20260901064647 | 66 | 226 | 0.0 | 0.0 | 0.00 | 0.00 | 0.00 | 99 | 984.3 |
| 20260901064143 | 67 | 226 | 0.0 | 0.0 | 0.00 | 0.00 | 0.00 | 99 | 984.4 |
| 20260901063640 | 66 | 226 | 0.0 | 0.0 | 0.00 | 0.00 | 0.00 | 99 | 984.5 |
| 20260901063135 | 66 | 226 | 0.0 | 0.0 | 0.00 | 0.00 | 0.00 | 99 | 984.3 |
| 20260901062631 | 66 | 226 | 0.0 | 0.0 | 0.00 | 0.00 | 0.00 | 99 | 984.5 |
| 20260901062127 | 66 | 226 | 0.0 | 0.0 | 0.00 | 0.00 | 0.00 | 99 | 984.4 |
| 20260901061623 | 66 | 226 | 0.0 | 0.0 | 0.00 | 0.00 | 0.00 | 99 | 984.3 |
| 20260901061117 | 66 | 226 | 0.0 | 0.0 | 0.00 | 0.00 | 0.00 | 99 | 984.2 |
| 20260901060617 | 66 | 226 | 0.0 | 0.0 | 0.00 | 0.00 | 0.00 | 99 | 984.3 |
| 20260901060113 | 66 | 226 | 0.0 | 0.0 | 0.00 | 0.00 | 0.00 | 99 | 984.4 |
| 20260901055613 | 66 | 226 | 0.0 | 0.0 | 0.00 | 0.00 | 0.00 | 99 | 984.5 |
| 20260901055110 | 66 | 226 | 0.0 | 0.0 | 0.00 | 0.00 | 0.00 | 99 | 984.5 |
| 20260901054607 | 66 | 226 | 0.0 | 0.0 | 0.00 | 0.00 | 0.00 | 99 | 984.6 |
| 20260901054103 | 66 | 226 | 0.0 | 0.0 | 0.00 | 0.00 | 0.00 | 99 | 984.4 |
| 20260901053559 | 66 | 226 | 0.0 | 0.0 | 0.00 | 0.00 | 0.00 | 99 | 984.5 |
| 20260901053054 | 66 | 226 | 0.0 | 0.0 | 0.00 | 0.00 | 0.00 | 99 | 984.6 |
| 20260901052549 | 66 | 226 | 0.0 | 0.0 | 0.00 | 0.00 | 0.00 | 99 | 984.7 |
| 20260901052044 | 66 | 226 | 0.0 | 0.0 | 0.00 | 0.00 | 0.00 | 99 | 984.8 |
| 20260901051539 | 66 | 226 | 0.0 | 0.0 | 0.00 | 0.00 | 0.00 | 99 | 984.6 |
| 20260901051038 | 66 | 226 | 0.0 | 0.0 | 0.00 | 0.00 | 0.00 | 99 | 984.6 |
| 20260901050533 | 66 | 226 | 0.0 | 0.0 | 0.00 | 0.00 | 0.00 | 99 | 984.5 |
| 20260901050028 | 67 | 226 | 0.0 | 0.0 | 0.00 | 0.00 | 0.00 | 99 | 984.4 |
| 20260901045523 | 67 | 226 | 0.0 | 0.0 | 0.00 | 0.00 | 0.00 | 99 | 984.5 |
| 20260901045023 | 67 | 226 | 0.0 | 0.0 | 0.00 | 0.00 | 0.00 | 99 | 984.6 |
| 20260901044519 | 67 | 226 | 0.0 | 0.0 | 0.00 | 0.00 | 0.00 | 99 | 984.7 |
| 20260901044015 | 67 | 226 | 0.0 | 0.0 | 0.00 | 0.00 | 0.00 | 99 | 984.6 |
| 20260901043510 | 67 | 226 | 0.0 | 0.0 | 0.00 | 0.00 | 0.00 | 99 | 984.5 |
| 20260901043006 | 67 | 226 | 0.0 | 0.0 | 0.00 | 0.00 | 0.00 | 99 | 984.4 |
| 20260901042505 | 67 | 226 | 0.0 | 0.0 | 0.00 | 0.00 | 0.00 | 99 | 984.7 |
| 20260901042001 | 67 | 226 | 0.0 | 0.0 | 0.00 | 0.00 | 0.00 | 99 | 984.6 |
| 20260901041500 | 67 | 226 | 0.0 | 0.0 | 0.00 | 0.00 | 0.00 | 99 | 984.8 |
| 20260901040955 | 68 | 226 | 0.0 | 0.0 | 0.00 | 0.00 | 0.00 | 99 | 984.8 |
| 20260901040450 | 68 | 226 | 0.0 | 0.0 | 0.00 | 0.00 | 0.00 | 99 | 985.0 |
| 20260901035949 | 67 | 226 | 0.0 | 0.0 | 0.00 | 0.05 | 0.05 | 99 | 984.8 |
| 20260901035448 | 67 | 226 | 0.0 | 0.0 | 0.00 | 0.05 | 0.05 | 99 | 984.9 |
| 20260901034947 | 68 | 226 | 0.0 | 0.0 | 0.00 | 0.05 | 0.05 | 99 | 985.0 |
| 20260901034446 | 68 | 226 | 0.0 | 0.0 | 0.00 | 0.05 | 0.05 | 99 | 985.0 |
| 20260901033941 | 68 | 226 | 0.0 | 0.0 | 0.00 | 0.05 | 0.05 | 99 | 985.0 |
| 20260901033440 | 68 | 226 | 0.0 | 0.0 | 0.00 | 0.05 | 0.05 | 99 | 985.1 |
| 20260901032939 | 68 | 226 | 0.0 | 0.0 | 0.00 | 0.05 | 0.05 | 99 | 985.0 |
| 20260901032433 | 68 | 226 | 0.0 | 0.0 | 0.00 | 0.05 | 0.05 | 99 | 985.0 |
| 20260901031929 | 68 | 226 | 0.0 | 0.0 | 0.00 | 0.05 | 0.05 | 99 | 985.1 |
| 20260901031424 | 68 | 226 | 0.0 | 0.0 | 0.00 | 0.05 | 0.05 | 99 | 985.4 |
| 20260901030924 | 68 | 226 | 0.0 | 0.0 | 0.00 | 0.05 | 0.05 | 99 | 985.1 |
| 20260901030420 | 68 | 226 | 0.0 | 0.0 | 0.00 | 0.05 | 0.05 | 99 | 985.1 |
| 20260901025918 | 68 | 226 | 0.0 | 0.0 | 0.00 | 0.05 | 0.05 | 99 | 985.2 |
| 20260901025414 | 68 | 226 | 0.0 | 0.0 | 0.00 | 0.05 | 0.05 | 99 | 985.3 |
| 20260901024908 | 69 | 226 | 0.0 | 0.0 | 0.00 | 0.05 | 0.05 | 99 | 985.1 |
| 20260901024407 | 68 | 226 | 0.0 | 0.0 | 0.00 | 0.05 | 0.05 | 99 | 985.3 |
| 20260901023906 | 68 | 226 | 0.0 | 0.0 | 0.00 | 0.05 | 0.05 | 99 | 985.3 |
| 20260901023401 | 68 | 226 | 0.0 | 0.0 | 0.00 | 0.05 | 0.05 | 99 | 985.2 |
| 20260901022856 | 69 | 226 | 0.0 | 0.0 | 0.00 | 0.05 | 0.05 | 99 | 985.3 |
| 20260901022352 | 69 | 226 | 0.0 | 0.0 | 0.00 | 0.05 | 0.05 | 99 | 985.2 |
| 20260901021847 | 69 | 226 | 0.0 | 0.0 | 0.00 | 0.05 | 0.05 | 99 | 985.1 |
| 20260901021343 | 69 | 226 | 0.0 | 0.0 | 0.00 | 0.05 | 0.05 | 99 | 985.1 |
| 20260901020837 | 69 | 226 | 0.0 | 0.0 | 0.00 | 0.05 | 0.05 | 99 | 985.1 |
| 20260901020332 | 69 | 226 | 0.0 | 0.0 | 0.00 | 0.05 | 0.05 | 99 | 985.1 |
| 20260901015827 | 69 | 226 | 0.0 | 0.0 | 0.00 | 0.05 | 0.05 | 99 | 985.1 |
| 20260901015324 | 69 | 226 | 0.0 | 0.0 | 0.00 | 0.05 | 0.05 | 99 | 984.9 |
| 20260901014822 | 69 | 226 | 0.0 | 0.0 | 0.00 | 0.05 | 0.05 | 99 | 984.8 |
| 20260901014319 | 68 | 226 | 0.0 | 0.0 | 0.00 | 0.05 | 0.05 | 99 | 985.0 |
| 20260901013814 | 69 | 226 | 0.0 | 0.0 | 0.00 | 0.05 | 0.05 | 99 | 985.0 |
| 20260901013310 | 68 | 226 | 0.0 | 0.0 | 0.00 | 0.05 | 0.05 | 99 | 984.9 |
| 20260901012805 | 68 | 226 | 0.0 | 0.0 | 0.00 | 0.05 | 0.05 | 99 | 985.0 |
| 20260901012306 | 69 | 226 | 0.0 | 0.0 | 0.00 | 0.05 | 0.05 | 99 | 984.8 |
| 20260901011800 | 69 | 226 | 0.0 | 0.0 | 0.05 | 0.05 | 0.05 | 99 | 984.8 |
| 20260901011255 | 69 | 226 | 0.0 | 0.0 | 0.05 | 0.05 | 0.05 | 99 | 984.6 |
| 20260901010749 | 69 | 226 | 0.0 | 0.0 | 0.00 | 0.04 | 0.04 | 99 | 984.8 |
| 20260901010244 | 69 | 226 | 0.0 | 0.0 | 0.00 | 0.04 | 0.04 | 99 | 984.7 |
| 20260901005743 | 69 | 226 | 0.0 | 0.0 | 0.00 | 0.04 | 0.04 | 99 | 984.4 |
| 20260901005238 | 69 | 226 | 0.0 | 0.0 | 0.00 | 0.04 | 0.04 | 99 | 984.5 |
| 20260901004732 | 69 | 226 | 0.0 | 0.0 | 0.00 | 0.04 | 0.04 | 99 | 984.5 |
| 20260901004227 | 69 | 226 | 0.0 | 0.0 | 0.00 | 0.04 | 0.04 | 99 | 984.3 |
| 20260901003728 | 69 | 226 | 0.0 | 0.0 | 0.00 | 0.04 | 0.04 | 99 | 984.3 |
| 20260901003227 | 69 | 226 | 0.0 | 0.0 | 0.00 | 0.04 | 0.04 | 99 | 984.2 |
| 20260901002721 | 70 | 226 | 0.0 | 0.0 | 0.00 | 0.04 | 0.04 | 99 | 984.1 |
| 20260901002216 | 70 | 226 | 0.0 | 0.0 | 0.00 | 0.04 | 0.04 | 99 | 984.2 |
| 20260901001712 | 70 | 226 | 0.0 | 0.0 | 0.00 | 0.04 | 0.04 | 99 | 984.2 |
| 20260901001207 | 70 | 226 | 0.0 | 0.0 | 0.00 | 0.04 | 0.04 | 99 | 984.1 |
| 20260901000702 | 70 | 226 | 0.0 | 0.0 | 0.00 | 0.04 | 0.04 | 99 | 984.4 |
| 20260901000157 | 70 | 226 | 0.0 | 0.0 | 0.00 | 0.04 | 0.04 | 99 | 984.2 |
| 20260831235655 | 70 | 226 | 0.0 | 0.0 | 0.00 | 0.04 | 0.04 | 99 | 984.3 |
| 20260831235151 | 71 | 226 | 0.0 | 0.0 | 0.00 | 0.04 | 0.04 | 99 | 984.1 |
| 20260831234651 | 71 | 226 | 0.0 | 0.0 | 0.00 | 0.04 | 0.04 | 99 | 984.1 |
| 20260831234146 | 71 | 226 | 0.0 | 0.0 | 0.00 | 0.04 | 0.04 | 99 | 984.3 |
| 20260831233641 | 71 | 226 | 0.0 | 0.0 | 0.00 | 0.04 | 0.04 | 99 | 984.4 |
| 20260831233137 | 72 | 226 | 0.0 | 0.0 | 0.00 | 0.04 | 0.04 | 99 | 984.3 |
| 20260831232632 | 72 | 226 | 0.0 | 0.0 | 0.00 | 0.04 | 0.04 | 99 | 984.2 |
| 20260831232128 | 72 | 226 | 0.0 | 1.0 | 0.00 | 0.04 | 0.04 | 99 | 984.5 |
| 20260831231619 | 72 | 226 | 0.0 | 0.0 | 0.00 | 0.04 | 0.04 | 99 | 984.5 |
| 20260831231114 | 73 | 225 | 0.0 | 1.0 | 0.00 | 0.04 | 0.04 | 99 | 984.4 |
| 20260831230609 | 73 | 237 | 0.0 | 1.0 | 0.00 | 0.04 | 0.04 | 99 | 984.7 |
| 20260831230104 | 73 | 302 | 1.0 | 2.0 | 0.00 | 0.04 | 0.04 | 99 | 984.8 |
| 20260831225559 | 73 | 89 | 0.0 | 3.0 | 0.00 | 0.04 | 0.04 | 98 | 984.8 |
| 20260831225058 | 73 | 229 | 1.0 | 2.0 | 0.00 | 0.04 | 0.04 | 99 | 985.0 |
| 20260831224553 | 73 | 229 | 0.0 | 0.0 | 0.00 | 0.04 | 0.04 | 99 | 984.9 |
| 20260831224049 | 72 | 229 | 0.0 | 0.0 | 0.00 | 0.04 | 0.04 | 99 | 984.8 |
| 20260831223544 | 72 | 229 | 0.0 | 0.0 | 0.00 | 0.04 | 0.04 | 99 | 984.8 |
| 20260831223040 | 72 | 229 | 0.0 | 0.0 | 0.00 | 0.04 | 0.04 | 99 | 984.5 |
| 20260831222536 | 72 | 229 | 0.0 | 0.0 | 0.00 | 0.04 | 0.04 | 99 | 984.5 |
| 20260831222036 | 72 | 229 | 0.0 | 0.0 | 0.00 | 0.04 | 0.04 | 99 | 984.6 |
| 20260831221532 | 71 | 229 | 0.0 | 0.0 | 0.00 | 0.04 | 0.04 | 99 | 984.7 |
| 20260831221033 | 72 | 229 | 0.0 | 0.0 | 0.00 | 0.04 | 0.04 | 99 | 984.9 |
| 20260831220528 | 72 | 229 | 0.0 | 0.0 | 0.00 | 0.04 | 0.04 | 99 | 985.0 |
| 20260831220023 | 72 | 229 | 0.0 | 0.0 | 0.00 | 0.04 | 0.04 | 99 | 984.7 |
| 20260831215519 | 72 | 229 | 0.0 | 0.0 | 0.00 | 0.04 | 0.04 | 99 | 984.7 |
| 20260831215014 | 72 | 229 | 0.0 | 1.0 | 0.00 | 0.04 | 0.04 | 99 | 984.7 |
| 20260831214512 | 72 | 229 | 0.0 | 0.0 | 0.07 | 0.04 | 0.04 | 99 | 984.9 |
| 20260831214007 | 72 | 229 | 0.0 | 0.0 | 0.12 | 0.04 | 0.04 | 99 | 985.1 |
| 20260831213504 | 73 | 229 | 0.0 | 0.0 | 0.05 | 0.03 | 0.03 | 98 | 985.1 |
| 20260831213004 | 73 | 229 | 0.0 | 0.0 | 0.07 | 0.02 | 0.02 | 97 | 985.1 |
| 20260831212500 | 73 | 229 | 0.0 | 0.0 | 0.12 | 0.02 | 0.02 | 96 | 985.2 |
| 20260831211954 | 74 | 229 | 1.0 | 2.0 | 0.05 | 0.01 | 0.01 | 95 | 985.3 |
| 20260831211449 | 75 | 229 | 1.0 | 1.0 | 0.00 | 0.00 | 0.00 | 91 | 985.5 |
| 20260831210948 | 77 | 229 | 0.0 | 1.0 | 0.00 | 0.00 | 0.00 | 84 | 985.4 |
| 20260831210444 | 79 | 46 | 1.0 | 10.0 | 0.00 | 0.00 | 0.00 | 80 | 985.2 |
| 20260831205940 | 80 | 246 | 9.0 | 13.0 | 0.00 | 0.00 | 0.00 | 79 | 985.0 |
| 20260831205435 | 80 | 116 | 0.0 | 1.0 | 0.00 | 0.00 | 0.00 | 89 | 984.4 |
| 20260831204930 | 82 | 116 | 1.0 | 1.0 | 0.00 | 0.00 | 0.00 | 87 | 984.6 |
| 20260831204430 | 83 | 116 | 0.0 | 1.0 | 0.00 | 0.00 | 0.00 | 79 | 984.3 |
| 20260831203929 | 83 | 116 | 0.0 | 1.0 | 0.00 | 0.00 | 0.00 | 77 | 984.4 |
| 20260831203424 | 85 | 116 | 1.0 | 1.0 | 0.00 | 0.00 | 0.00 | 76 | 984.8 |
| 20260831202922 | 86 | 115 | 0.0 | 1.0 | 0.00 | 0.00 | 0.00 | 73 | 984.7 |
| 20260831202418 | 88 | 110 | 1.0 | 4.0 | 0.00 | 0.00 | 0.00 | 73 | 984.5 |
| 20260831201917 | 87 | 247 | 1.0 | 3.0 | 0.00 | 0.00 | 0.00 | 73 | 984.5 |
| 20260831201416 | 87 | 239 | 2.0 | 3.0 | 0.00 | 0.00 | 0.00 | 69 | 984.6 |
| 20260831200912 | 87 | 108 | 3.0 | 4.0 | 0.00 | 0.00 | 0.00 | 72 | 984.6 |
| 20260831200407 | 87 | 112 | 4.0 | 4.0 | 0.00 | 0.00 | 0.00 | 70 | 984.6 |
| 20260831195902 | 87 | 126 | 2.0 | 3.0 | 0.00 | 0.00 | 0.00 | 73 | 984.8 |
| 20260831195357 | 87 | 131 | 3.0 | 3.0 | 0.00 | 0.00 | 0.00 | 71 | 984.8 |
| 20260831194853 | 86 | 138 | 0.0 | 2.0 | 0.00 | 0.00 | 0.00 | 72 | 985.0 |
| 20260831194348 | 86 | 224 | 0.0 | 2.0 | 0.00 | 0.00 | 0.00 | 71 | 984.9 |
| 20260831193847 | 86 | 110 | 2.0 | 3.0 | 0.00 | 0.00 | 0.00 | 72 | 985.1 |
| 20260831193343 | 86 | 145 | 1.0 | 2.0 | 0.00 | 0.00 | 0.00 | 72 | 985.1 |
| 20260831192838 | 87 | 49 | 0.0 | 1.0 | 0.00 | 0.00 | 0.00 | 74 | 985.2 |
| 20260831192337 | 85 | 141 | 1.0 | 2.0 | 0.00 | 0.00 | 0.00 | 74 | 985.1 |
| 20260831191833 | 85 | 179 | 0.0 | 3.0 | 0.00 | 0.00 | 0.00 | 73 | 985.2 |
| 20260831191329 | 85 | 236 | 1.0 | 3.0 | 0.00 | 0.00 | 0.00 | 73 | 985.4 |
| 20260831190825 | 85 | 131 | 1.0 | 2.0 | 0.00 | 0.00 | 0.00 | 73 | 985.4 |
| 20260831190319 | 85 | 255 | 1.0 | 3.0 | 0.00 | 0.00 | 0.00 | 73 | 985.6 |
| 20260831185819 | 85 | 120 | 3.0 | 4.0 | 0.00 | 0.00 | 0.00 | 73 | 985.4 |
| 20260831185314 | 85 | 101 | 3.0 | 3.0 | 0.00 | 0.00 | 0.00 | 74 | 985.6 |
| 20260831184813 | 85 | 250 | 2.0 | 3.0 | 0.00 | 0.00 | 0.00 | 74 | 985.6 |
| 20260831184309 | 85 | 115 | 1.0 | 3.0 | 0.00 | 0.00 | 0.00 | 73 | 985.6 |
| 20260831183804 | 85 | 101 | 3.0 | 6.0 | 0.00 | 0.00 | 0.00 | 72 | 985.7 |
| 20260831183303 | 85 | 93 | 3.0 | 4.0 | 0.00 | 0.00 | 0.00 | 73 | 985.7 |
| 20260831182803 | 85 | 109 | 2.0 | 3.0 | 0.00 | 0.00 | 0.00 | 75 | 985.8 |
| 20260831182258 | 85 | 122 | 1.0 | 3.0 | 0.00 | 0.00 | 0.00 | 77 | 985.8 |
| 20260831181753 | 84 | 127 | 1.0 | 2.0 | 0.00 | 0.00 | 0.00 | 77 | 985.8 |
| 20260831181249 | 83 | 224 | 4.0 | 4.0 | 0.00 | 0.00 | 0.00 | 76 | 985.9 |
| 20260831180748 | 83 | 124 | 3.0 | 4.0 | 0.00 | 0.00 | 0.00 | 77 | 986.1 |
| 20260831180243 | 83 | 117 | 3.0 | 4.0 | 0.00 | 0.00 | 0.00 | 79 | 986.0 |
| 20260831175742 | 82 | 127 | 1.0 | 1.0 | 0.00 | 0.00 | 0.00 | 81 | 986.0 |
| 20260831175239 | 82 | 127 | 2.0 | 2.0 | 0.00 | 0.00 | 0.00 | 81 | 986.2 |
| 20260831174734 | 81 | 128 | 0.0 | 3.0 | 0.00 | 0.00 | 0.00 | 83 | 986.2 |
| 20260831174230 | 82 | 193 | 1.0 | 2.0 | 0.00 | 0.00 | 0.00 | 81 | 986.2 |
| 20260831173729 | 82 | 196 | 0.0 | 2.0 | 0.00 | 0.00 | 0.00 | 81 | 986.2 |
| 20260831173229 | 81 | 142 | 1.0 | 3.0 | 0.00 | 0.00 | 0.00 | 82 | 986.2 |
| 20260831172724 | 81 | 119 | 1.0 | 2.0 | 0.00 | 0.00 | 0.00 | 84 | 986.2 |
| 20260831172219 | 82 | 135 | 0.0 | 1.0 | 0.00 | 0.00 | 0.00 | 83 | 986.3 |
| 20260831171714 | 82 | 133 | 0.0 | 1.0 | 0.00 | 0.00 | 0.00 | 84 | 986.1 |
| 20260831171212 | 82 | 195 | 1.0 | 3.0 | 0.00 | 0.00 | 0.00 | 83 | 986.1 |
| 20260831170708 | 82 | 147 | 0.0 | 2.0 | 0.00 | 0.00 | 0.00 | 82 | 986.2 |
| 20260831170204 | 82 | 95 | 0.0 | 1.0 | 0.00 | 0.00 | 0.00 | 84 | 986.1 |
| 20260831165700 | 81 | 95 | 0.0 | 2.0 | 0.00 | 0.00 | 0.00 | 83 | 986.2 |
| 20260831165156 | 81 | 95 | 1.0 | 2.0 | 0.00 | 0.00 | 0.00 | 85 | 986.2 |
| 20260831164652 | 80 | 95 | 2.0 | 2.0 | 0.00 | 0.00 | 0.00 | 85 | 986.2 |
| 20260831164148 | 81 | 139 | 1.0 | 2.0 | 0.00 | 0.00 | 0.00 | 84 | 986.4 |
| 20260831163642 | 81 | 107 | 1.0 | 1.0 | 0.00 | 0.00 | 0.00 | 84 | 986.2 |
| 20260831163138 | 80 | 106 | 1.0 | 1.0 | 0.00 | 0.00 | 0.00 | 85 | 986.3 |
| 20260831162637 | 80 | 106 | 0.0 | 1.0 | 0.00 | 0.00 | 0.00 | 87 | 986.2 |
| 20260831162135 | 80 | 106 | 0.0 | 0.0 | 0.00 | 0.00 | 0.00 | 88 | 986.3 |
| 20260831161631 | 80 | 106 | 0.0 | 1.0 | 0.00 | 0.00 | 0.00 | 89 | 986.2 |
| 20260831161128 | 79 | 106 | 0.0 | 0.0 | 0.00 | 0.00 | 0.00 | 87 | 986.3 |
| 20260831160627 | 79 | 106 | 0.0 | 1.0 | 0.00 | 0.00 | 0.00 | 91 | 986.3 |
| 20260831160122 | 78 | 106 | 0.0 | 1.0 | 0.00 | 0.00 | 0.00 | 92 | 986.3 |
| 20260831155616 | 78 | 106 | 0.0 | 1.0 | 0.00 | 0.00 | 0.00 | 90 | 986.3 |
| 20260831155112 | 78 | 106 | 1.0 | 1.0 | 0.00 | 0.00 | 0.00 | 89 | 986.4 |
| 20260831154608 | 78 | 106 | 0.0 | 1.0 | 0.00 | 0.00 | 0.00 | 90 | 986.3 |
| 20260831154107 | 78 | 106 | 0.0 | 1.0 | 0.00 | 0.00 | 0.00 | 88 | 986.2 |
| 20260831153607 | 78 | 106 | 2.0 | 3.0 | 0.00 | 0.00 | 0.00 | 86 | 986.3 |
| 20260831153104 | 78 | 98 | 0.0 | 3.0 | 0.00 | 0.00 | 0.00 | 87 | 986.4 |
| 20260831152559 | 78 | 126 | 1.0 | 2.0 | 0.00 | 0.00 | 0.00 | 86 | 986.5 |
| 20260831152055 | 78 | 126 | 0.0 | 2.0 | 0.00 | 0.00 | 0.00 | 86 | 986.4 |
| 20260831151554 | 78 | 108 | 2.0 | 2.0 | 0.00 | 0.00 | 0.00 | 87 | 986.4 |
| 20260831151049 | 78 | 112 | 0.0 | 2.0 | 0.00 | 0.00 | 0.00 | 88 | 986.2 |
| 20260831150543 | 78 | 99 | 2.0 | 3.0 | 0.00 | 0.00 | 0.00 | 89 | 986.4 |